Time,TemperatureF,DewpointF,PressureIn,WindDirection,WindDirectionDegrees,WindSpeedMPH,WindSpeedGustMPH,Humidity,HourlyPrecipIn,Conditions,Clouds,dailyrainin,SoftwareType,DateUTC
2013-02-16 00:13:00,21.4,15.0,30.22,WNW,300,4.0,12.0,77,0.00,,,0.00,weatherlink.com 1.10,2013-02-16 06:13:00,
2013-02-16 00:28:00,21.1,15.0,30.22,NW,309,7.0,13.0,77,0.00,,,0.00,weatherlink.com 1.10,2013-02-16 06:28:00,
2013-02-16 00:43:00,20.9,14.0,30.21,NW,304,4.0,13.0,76,0.00,,,0.00,weatherlink.com 1.10,2013-02-16 06:43:00,
2013-02-16 00:59:00,20.7,15.0,30.21,NW,323,5.0,13.0,77,0.00,,,0.00,weatherlink.com 1.10,2013-02-16 06:59:00,
2013-02-16 01:14:00,20.6,14.0,30.21,WNW,289,6.0,12.0,77,0.00,,,0.00,weatherlink.com 1.10,2013-02-16 07:14:00,
2013-02-16 01:29:00,20.3,14.0,30.21,NW,306,7.0,10.0,78,0.00,,,0.00,weatherlink.com 1.10,2013-02-16 07:29:00,
2013-02-16 01:44:00,20.9,14.0,30.21,NW,304,14.0,14.0,76,0.00,,,0.00,weatherlink.com 1.10,2013-02-16 07:44:00,
2013-02-16 01:59:00,20.4,14.0,30.21,WNW,301,5.0,12.0,75,0.00,,,0.00,weatherlink.com 1.10,2013-02-16 07:59:00,
2013-02-16 02:14:00,20.1,14.0,30.21,NW,318,7.0,14.0,77,0.00,,,0.00,weatherlink.com 1.10,2013-02-16 08:14:00,
2013-02-16 02:29:00,20.1,13.0,30.20,NNW,342,7.0,14.0,75,0.00,,,0.00,weatherlink.com 1.10,2013-02-16 08:29:00,
2013-02-16 02:44:00,19.8,12.0,30.20,NNW,337,7.0,13.0,73,0.00,,,0.00,weatherlink.com 1.10,2013-02-16 08:44:00,
2013-02-16 02:59:00,18.9,12.0,30.20,NNW,345,5.0,15.0,75,0.00,,,0.00,weatherlink.com 1.10,2013-02-16 08:59:00,
2013-02-16 03:14:00,18.5,12.0,30.19,NW,305,7.0,15.0,77,0.00,,,0.00,weatherlink.com 1.10,2013-02-16 09:14:00,
2013-02-16 03:29:00,18.4,13.0,30.19,North,349,4.0,13.0,79,0.00,,,0.00,weatherlink.com 1.10,2013-02-16 09:29:00,
2013-02-16 03:44:00,17.9,12.0,30.19,NNW,347,5.0,13.0,76,0.00,,,0.00,weatherlink.com 1.10,2013-02-16 09:44:00,
2013-02-16 03:59:00,17.8,12.0,30.19,North,350,6.0,16.0,77,0.00,,,0.00,weatherlink.com 1.10,2013-02-16 09:59:00,
2013-02-16 04:14:00,17.3,11.0,30.20,NNW,329,9.0,14.0,77,0.00,,,0.00,weatherlink.com 1.10,2013-02-16 10:14:00,
2013-02-16 04:29:00,16.7,11.0,30.20,NW,316,6.0,15.0,78,0.00,,,0.00,weatherlink.com 1.10,2013-02-16 10:29:00,
2013-02-16 04:44:00,16.3,11.0,30.20,WNW,297,9.0,16.0,79,0.00,,,0.00,weatherlink.com 1.10,2013-02-16 10:44:00,
2013-02-16 04:59:00,15.9,11.0,30.20,NNW,341,7.0,13.0,79,0.00,,,0.00,weatherlink.com 1.10,2013-02-16 10:59:00,
2013-02-16 05:14:00,15.5,10.0,30.21,North,355,12.0,14.0,79,0.00,,,0.00,weatherlink.com 1.10,2013-02-16 11:14:00,
2013-02-16 05:29:00,15.3,10.0,30.21,NNW,334,5.0,14.0,79,0.00,,,0.00,weatherlink.com 1.10,2013-02-16 11:29:00,
2013-02-16 05:44:00,15.1,10.0,30.21,NNW,339,5.0,13.0,80,0.00,,,0.00,weatherlink.com 1.10,2013-02-16 11:44:00,
2013-02-16 05:59:00,14.9,10.0,30.21,NNW,338,5.0,10.0,79,0.00,,,0.00,weatherlink.com 1.10,2013-02-16 11:59:00,
2013-02-16 06:14:00,14.7,9.0,30.21,NNW,344,4.0,12.0,79,0.00,,,0.00,weatherlink.com 1.10,2013-02-16 12:14:00,
2013-02-16 06:29:00,14.5,9.0,30.22,NNW,327,3.0,8.0,80,0.00,,,0.00,weatherlink.com 1.10,2013-02-16 12:29:00,
2013-02-16 06:59:00,14.3,9.0,30.23,NNW,327,5.0,9.0,79,0.00,,,0.00,weatherlink.com 1.10,2013-02-16 12:59:00,
2013-02-16 07:14:00,14.5,9.0,30.23,NNW,337,9.0,12.0,78,0.00,,,0.00,weatherlink.com 1.10,2013-02-16 13:14:00,
2013-02-16 07:29:00,14.6,8.0,30.23,NW,324,10.0,12.0,76,0.00,,,0.00,weatherlink.com 1.10,2013-02-16 13:29:00,
2013-02-16 07:44:00,15.1,8.0,30.24,NNW,340,7.0,13.0,74,0.00,,,0.00,weatherlink.com 1.10,2013-02-16 13:44:00,
2013-02-16 07:59:00,15.2,8.0,30.24,NNW,336,9.0,14.0,72,0.00,,,0.00,weatherlink.com 1.10,2013-02-16 13:59:00,
2013-02-16 08:14:00,15.7,8.0,30.24,North,355,9.0,12.0,71,0.00,,,0.00,weatherlink.com 1.10,2013-02-16 14:14:00,
2013-02-16 08:29:00,15.9,8.0,30.24,NW,314,6.0,12.0,70,0.00,,,0.00,weatherlink.com 1.10,2013-02-16 14:29:00,
2013-02-16 08:44:00,16.6,9.0,30.23,WNW,298,7.0,13.0,71,0.00,,,0.00,weatherlink.com 1.10,2013-02-16 14:44:00,
2013-02-16 09:00:00,16.8,9.0,30.24,NW,307,5.0,12.0,70,0.00,,,0.00,weatherlink.com 1.10,2013-02-16 15:00:00,
2013-02-16 09:15:00,17.1,8.0,30.24,NNW,338,5.0,15.0,66,0.00,,,0.00,weatherlink.com 1.10,2013-02-16 15:15:00,
2013-02-16 09:30:00,17.9,8.0,30.24,NW,325,7.0,14.0,65,0.00,,,0.00,weatherlink.com 1.10,2013-02-16 15:30:00,
2013-02-16 09:45:00,18.5,7.0,30.24,NNW,344,15.0,15.0,62,0.00,,,0.00,weatherlink.com 1.10,2013-02-16 15:45:00,
2013-02-16 10:00:00,18.2,7.0,30.24,WNW,294,3.0,17.0,63,0.00,,,0.00,weatherlink.com 1.10,2013-02-16 16:00:00,
2013-02-16 10:15:00,19.3,8.0,30.24,West,273,8.0,15.0,61,0.00,,,0.00,weatherlink.com 1.10,2013-02-16 16:15:00,
2013-02-16 10:30:00,19.1,8.0,30.24,NNW,333,1.0,17.0,61,0.00,,,0.00,weatherlink.com 1.10,2013-02-16 16:30:00,
2013-02-16 10:45:00,19.7,9.0,30.24,NW,306,10.0,19.0,62,0.00,,,0.00,weatherlink.com 1.10,2013-02-16 16:45:00,
2013-02-16 11:00:00,20.4,8.0,30.23,WNW,291,6.0,13.0,60,0.00,,,0.00,weatherlink.com 1.10,2013-02-16 17:00:00,
2013-02-16 11:15:00,20.4,8.0,30.23,NNW,329,7.0,14.0,60,0.00,,,0.00,weatherlink.com 1.10,2013-02-16 17:15:00,
2013-02-16 11:30:00,21.5,9.0,30.23,WNW,290,9.0,15.0,60,0.00,,,0.00,weatherlink.com 1.10,2013-02-16 17:30:00,
2013-02-16 11:45:00,21.5,9.0,30.22,NNW,330,4.0,18.0,59,0.00,,,0.00,weatherlink.com 1.10,2013-02-16 17:45:00,
2013-02-16 12:00:00,21.5,9.0,30.21,NW,311,12.0,16.0,60,0.00,,,0.00,weatherlink.com 1.10,2013-02-16 18:00:00,
2013-02-16 12:15:00,22.2,9.0,30.21,NW,323,4.0,16.0,57,0.00,,,0.00,weatherlink.com 1.10,2013-02-16 18:15:00,
2013-02-16 12:30:00,22.2,9.0,30.20,WNW,290,5.0,17.0,58,0.00,,,0.00,weatherlink.com 1.10,2013-02-16 18:30:00,
2013-02-16 12:45:00,23.1,10.0,30.19,NNW,340,8.0,15.0,58,0.00,,,0.00,weatherlink.com 1.10,2013-02-16 18:45:00,
2013-02-16 13:00:00,24.0,9.0,30.19,WNW,289,8.0,13.0,54,0.00,,,0.00,weatherlink.com 1.10,2013-02-16 19:00:00,
2013-02-16 13:15:00,24.0,10.0,30.18,North,5,5.0,17.0,55,0.00,,,0.00,weatherlink.com 1.10,2013-02-16 19:15:00,
2013-02-16 13:30:00,24.1,10.0,30.18,West,280,7.0,15.0,55,0.00,,,0.00,weatherlink.com 1.10,2013-02-16 19:30:00,
2013-02-16 13:45:00,24.5,10.0,30.18,NW,320,12.0,19.0,54,0.00,,,0.00,weatherlink.com 1.10,2013-02-16 19:45:00,
2013-02-16 14:00:00,25.5,12.0,30.17,WNW,288,3.0,15.0,57,0.00,,,0.00,weatherlink.com 1.10,2013-02-16 20:00:00,
2013-02-16 14:15:00,24.7,11.0,30.17,WNW,290,10.0,16.0,56,0.00,,,0.00,weatherlink.com 1.10,2013-02-16 20:15:00,
2013-02-16 14:30:00,24.9,11.0,30.17,WNW,290,7.0,17.0,56,0.00,,,0.00,weatherlink.com 1.10,2013-02-16 20:30:00,
2013-02-16 14:45:00,25.9,12.0,30.17,WNW,296,12.0,16.0,55,0.00,,,0.00,weatherlink.com 1.10,2013-02-16 20:45:00,
2013-02-16 15:00:00,25.6,12.0,30.16,NW,311,9.0,19.0,57,0.00,,,0.00,weatherlink.com 1.10,2013-02-16 21:00:00,
2013-02-16 15:30:00,26.0,13.0,30.17,WNW,289,4.0,17.0,58,0.00,,,0.00,weatherlink.com 1.10,2013-02-16 21:30:00,
2013-02-16 15:45:00,26.0,13.0,30.17,NW,314,7.0,19.0,57,0.00,,,0.00,weatherlink.com 1.10,2013-02-16 21:45:00,
2013-02-16 16:00:00,26.0,13.0,30.17,West,265,9.0,18.0,57,0.00,,,0.00,weatherlink.com 1.10,2013-02-16 22:00:00,
2013-02-16 16:15:00,25.8,12.0,30.17,WNW,302,20.0,20.0,57,0.00,,,0.00,weatherlink.com 1.10,2013-02-16 22:15:00,
2013-02-16 16:30:00,25.7,14.0,30.17,NNW,346,12.0,17.0,61,0.00,,,0.00,weatherlink.com 1.10,2013-02-16 22:30:00,
2013-02-16 16:45:00,25.3,15.0,30.17,NW,325,9.0,16.0,64,0.00,,,0.00,weatherlink.com 1.10,2013-02-16 22:45:00,
2013-02-16 17:00:00,24.8,14.0,30.17,NNW,346,4.0,15.0,63,0.00,,,0.00,weatherlink.com 1.10,2013-02-16 23:00:00,
2013-02-16 17:15:00,24.4,14.0,30.17,NW,304,10.0,15.0,66,0.00,,,0.00,weatherlink.com 1.10,2013-02-16 23:15:00,
2013-02-16 17:30:00,24.0,15.0,30.17,NW,313,7.0,11.0,68,0.00,,,0.00,weatherlink.com 1.10,2013-02-16 23:30:00,
2013-02-16 17:45:00,23.8,15.0,30.18,NW,317,7.0,14.0,68,0.00,,,0.00,weatherlink.com 1.10,2013-02-16 23:45:00,
2013-02-16 18:00:00,23.1,15.0,30.18,NNW,329,5.0,12.0,70,0.00,,,0.00,weatherlink.com 1.10,2013-02-17 00:00:00,
2013-02-16 18:15:00,22.6,15.0,30.19,NNW,332,4.0,10.0,72,0.00,,,0.00,weatherlink.com 1.10,2013-02-17 00:15:00,
2013-02-16 18:30:00,22.2,15.0,30.19,NNW,327,3.0,10.0,74,0.00,,,0.00,weatherlink.com 1.10,2013-02-17 00:30:00,
2013-02-16 19:00:00,21.3,15.0,30.20,NNW,331,1.0,6.0,75,0.00,,,0.00,weatherlink.com 1.10,2013-02-17 01:00:00,
2013-02-16 19:15:00,20.9,14.0,30.20,North,5,5.0,6.0,76,0.00,,,0.00,weatherlink.com 1.10,2013-02-17 01:15:00,
2013-02-16 19:30:00,20.7,14.0,30.20,NNW,338,1.0,5.0,76,0.00,,,0.00,weatherlink.com 1.10,2013-02-17 01:30:00,
2013-02-16 19:45:00,20.5,14.0,30.21,NNW,338,2.0,7.0,76,0.00,,,0.00,weatherlink.com 1.10,2013-02-17 01:45:00,
2013-02-16 20:00:00,20.3,14.0,30.21,NW,321,3.0,10.0,76,0.00,,,0.00,weatherlink.com 1.10,2013-02-17 02:00:00,
2013-02-16 20:15:00,20.2,14.0,30.21,North,360,5.0,10.0,77,0.00,,,0.00,weatherlink.com 1.10,2013-02-17 02:15:00,
2013-02-16 20:30:00,19.2,13.0,30.22,NNE,17,8.0,13.0,76,0.00,,,0.00,weatherlink.com 1.10,2013-02-17 02:30:00,
2013-02-16 20:45:00,18.0,12.0,30.22,NNE,32,7.0,13.0,77,0.00,,,0.00,weatherlink.com 1.10,2013-02-17 02:45:00,
2013-02-16 21:00:00,17.4,11.0,30.23,NNE,26,11.0,12.0,77,0.00,,,0.00,weatherlink.com 1.10,2013-02-17 03:00:00,
2013-02-16 21:15:00,17.1,11.0,30.23,NNE,18,6.0,13.0,76,0.00,,,0.00,weatherlink.com 1.10,2013-02-17 03:15:00,
2013-02-16 21:31:00,16.8,10.0,30.23,NNE,24,4.0,10.0,76,0.00,,,0.00,weatherlink.com 1.10,2013-02-17 03:31:00,
2013-02-16 21:46:00,16.3,10.0,30.23,NE,51,4.0,9.0,77,0.00,,,0.00,weatherlink.com 1.10,2013-02-17 03:46:00,
2013-02-16 22:01:00,15.8,10.0,30.23,NNE,13,4.0,6.0,78,0.00,,,0.00,weatherlink.com 1.10,2013-02-17 04:01:00,
2013-02-16 22:16:00,15.6,10.0,30.23,NNE,33,6.0,7.0,78,0.00,,,0.00,weatherlink.com 1.10,2013-02-17 04:16:00,
2013-02-16 22:31:00,15.3,10.0,30.23,NNE,23,4.0,7.0,78,0.00,,,0.00,weatherlink.com 1.10,2013-02-17 04:31:00,
2013-02-16 22:46:00,15.3,9.0,30.23,NNE,32,6.0,7.0,77,0.00,,,0.00,weatherlink.com 1.10,2013-02-17 04:46:00,
2013-02-16 23:01:00,15.1,9.0,30.23,NE,35,1.0,7.0,77,0.00,,,0.00,weatherlink.com 1.10,2013-02-17 05:01:00,
2013-02-16 23:16:00,15.0,9.0,30.23,NE,39,2.0,8.0,77,0.00,,,0.00,weatherlink.com 1.10,2013-02-17 05:16:00,
2013-02-16 23:31:00,14.8,9.0,30.22,NE,38,8.0,10.0,76,0.00,,,0.00,weatherlink.com 1.10,2013-02-17 05:31:00,
2013-02-16 23:46:00,14.5,8.0,30.23,NNE,30,3.0,8.0,76,0.00,,,0.00,weatherlink.com 1.10,2013-02-17 05:46:00,